Location: Holiday Acres Laynes 2 Mobile Home Park
(26.7249°N, 81.8671°W)
Time: 13:11:21
(UTC+00:00)

ERS-2 - Pass Details

Date: 25 November 2020
Orbit: 492 x 498 km, 98.6° (Epoch: 23 January)

Event Time Altitude Azimuth Distance (km) Brightness Sun altitude
Rises 23:29:48 0° 1° (N) 2,586 5.6 -12.5°
Reaches altitude 10° 23:31:59 10° 353° (N) 1,701 4.7 -12.9°
Maximum altitude 23:35:21 36° 286° (WNW) 808 3.7 -13.6°
Drops below altitude 10° 23:38:42 10° 219° (SW) 1,692 5.7 -14.4°
Sets 23:40:52 0° 210° (SSW) 2,571 6.5 -14.8°
